• Join FlightAware (Why Join?)
  • Login
  • US Flag 
01:26AM EDT


 

Airport Tracker/Info


-or-


 

Live Flight TrackerFlight Track Log ✈ SWA407 ✈ 12-May-2013 ✈ KMCO - KATL

Flight Track Log - Related Links

Times and Time Zones

All times are in EDT time to prevent confusion due to time zone crossing. See the SWA407 flight status page for this flight to view local times or setup timezone preferences in your user account.

Time Position Orientation Groundspeed Altitude Reporting Facility
EDT Latitude Longitude Course Direction KTS MPH feet Rate Location/Type
03:21PM 28.4167 -81.3000 210° Southwest 160 184 800  Level Orlando TRACON
03:22PM 28.3667 -81.3333 210° Southwest 222 255 3,300 2,460 Climbing Orlando TRACON
03:23PM 28.3333 -81.4000 240° Southwest 258 297 6,000 3,600 Climbing Orlando TRACON
03:24PM 28.3333 -81.4833 270° West 276 318 10,500 3,240 Climbing Orlando TRACON
03:26PM 28.4744 -81.5158 349° North 303 349 14,900 2,820 Climbing Jacksonville Center
03:27PM 28.5769 -81.5356 350° North 336 387 18,200 3,300 Climbing Jacksonville Center
03:28PM 28.6814 -81.5581 349° North 362 417 21,500 2,700 Climbing Jacksonville Center
03:29PM 28.7944 -81.5825 349° North 387 445 23,600 2,220 Climbing Jacksonville Center
03:30PM 28.9094 -81.6069 349° North 405 466 26,000 1,200 Climbing Jacksonville Center
03:31PM 29.0244 -81.6317 349° North 412 474 26,000  Level Jacksonville Center
03:32PM 29.1417 -81.6586 349° North 418 481 26,000 60 Level Jacksonville Center
03:33PM 29.2567 -81.6858 348° North 418 481 26,200 1,260 Climbing Jacksonville Center
03:34PM 29.3758 -81.7106 350° North 423 487 28,500 2,760 Climbing Jacksonville Center
03:35PM 29.4931 -81.7353 350° North 428 493 31,800 3,120 Climbing Jacksonville Center
03:36PM 29.6017 -81.7581 350° North 421 484 34,800 1,560 Climbing Jacksonville Center
03:37PM 29.7083 -81.7831 348° North 399 459 35,000 60 Climbing Jacksonville Center
03:38PM 29.8192 -81.8058 350° North 394 453 35,000  Level Jacksonville Center
03:39PM 29.9342 -81.8236 352° North 394 453 35,000  Level Jacksonville Center
03:40PM 30.0636 -81.8150 North 414 476 35,000  Level Jacksonville Center
03:41PM 30.1825 -81.8111 North 426 490 35,000  Level Jacksonville Center
03:42PM 30.3017 -81.8122 360° North 421 484 35,000  Level Jacksonville Center
03:43PM 30.4164 -81.8061 North 416 479 35,000  Level Jacksonville Center
03:44PM 30.5353 -81.8047 North 421 484 35,000  Level Jacksonville Center
03:45PM 30.6464 -81.8350 347° North 404 465 35,000  Level Jacksonville Center
03:46PM 30.7428 -81.8822 337° Northwest 391 450 35,000  Level Jacksonville Center
03:47PM 30.8433 -81.9344 336° Northwest 385 443 35,000  Level Jacksonville Center
03:48PM 30.9397 -81.9819 337° Northwest 385 443 35,000  Level Jacksonville Center
03:49PM 31.0383 -82.0342 336° Northwest 379 436 35,000  Level Jacksonville Center
03:50PM 31.1367 -82.0867 335° Northwest 379 436 35,000  Level Jacksonville Center
03:51PM 31.2414 -82.1394 337° Northwest 391 450 35,000  Level Jacksonville Center
03:53PM 31.4811 -82.2614 337° Northwest 397 457 35,000  Level Atlanta Center
03:54PM 31.5842 -82.3128 337° Northwest 402 463 35,000  Level Atlanta Center
03:55PM 31.6894 -82.3694 335° Northwest 402 463 35,000  Level Atlanta Center
03:56PM 31.7903 -82.4239 335° Northwest 402 463 35,000  Level Atlanta Center
03:57PM 31.8933 -82.4758 337° Northwest 402 463 35,000  Level Atlanta Center
03:58PM 31.9961 -82.5303 336° Northwest 402 463 35,000  Level Atlanta Center
03:59PM 32.0969 -82.5850 335° Northwest 402 463 35,000 -540 Level Atlanta Center
04:00PM 32.1772 -82.6694 318° Northwest 397 457 34,000 -1,020 Descending Atlanta Center
04:01PM 32.2575 -82.7567 317° Northwest 392 451 33,000 -1,020 Descending Atlanta Center
04:02PM 32.3356 -82.8417 317° Northwest 387 445 32,000 -1,020 Descending Atlanta Center
04:03PM 32.4094 -82.9194 318° Northwest 375 432 31,000 -1,020 Descending Atlanta Center
04:04PM 32.4853 -83.0047 317° Northwest 375 432 30,000 -1,020 Descending Atlanta Center
04:05PM 32.5611 -83.0850 318° Northwest 375 432 29,000 -1,020 Descending Atlanta Center
04:06PM 32.6369 -83.1681 317° Northwest 370 426 28,000 -1,020 Descending Atlanta Center
04:07PM 32.7083 -83.2489 316° Northwest 365 420 27,000 -1,440 Descending Atlanta Center
04:08PM 32.7756 -83.3250 316° Northwest 349 402 25,200 -2,040 Descending Atlanta Center
04:09PM 32.8450 -83.3958 319° Northwest 338 389 23,000 -2,220 Descending Atlanta Center
04:10PM 32.9142 -83.4772 315° West 338 389 20,800 -2,220 Descending Atlanta Center
04:11PM 32.9856 -83.5533 318° Northwest 338 389 18,600 -2,160 Descending Atlanta Center
04:12PM 33.0525 -83.6300 316° Northwest 338 389 16,500 -2,100 Descending Atlanta Center
04:13PM 33.1111 -83.6917 319° Northwest 324 373 14,400 -2,280 Descending Atlanta Center
04:14PM 33.1333 -83.7167 317° Northwest 313 360 13,500 -1,800 Descending Atlanta TRACON
04:15PM 33.2000 -83.8000 314° West 300 345 12,100 -780 Descending Atlanta TRACON
04:16PM 33.2500 -83.8667 312° West 276 318 12,000 -600 Descending Atlanta TRACON
04:16PM 33.2828 -83.9097 312° West 285 328 11,100 -1,500 Descending Atlanta Center
04:17PM 33.3308 -83.9767 311° West 268 308 9,500 -1,560 Descending Atlanta Center
04:18PM 33.4019 -84.0064 341° North 259 298 8,000 -1,200 Descending Atlanta Center
04:19PM 33.4625 -84.0314 341° North 248 285 7,100 -1,080 Descending Atlanta Center
04:20PM 33.5186 -84.0561 340° North 225 259 5,900 -1,200 Descending Atlanta Center
04:21PM 33.5689 -84.0911 330° Northwest 211 243 4,800 -1,140 Descending Atlanta Center
04:22PM 33.5875 -84.1561 289° West 197 227 3,700 -1,080 Descending Atlanta Center
04:23PM 33.6000 -84.1833 299° West 212 244 3,400 -540 Descending Atlanta TRACON
04:24PM 33.6333 -84.2333 309° West 185 213 3,000 -240 Descending Atlanta TRACON
04:25PM 33.6333 -84.3000 270° West 177 204 2,900 -420 Descending Atlanta TRACON
04:26PM 33.6333 -84.3500 270° West 146 168 2,200 -720 Descending Atlanta TRACON
04:27PM 33.6333 -84.4000 270° West 133 153 1,500 -720 Descending Atlanta TRACON
04:29PM 33.6333 -84.4167 270° West  Level FlightAware Approximate
04:36PM 33.6367 -84.4279 270° West  Level Estimated